DELTA 1 DEB, 2518

Orbit data source: Space-Track

DELTA 1 DEB, 2518 is space debris in SSO originally from a launch on Sun, 02 Oct 1966 UTC launched from the Air Force Western Test Range (AFWTR). Debris objects in space refer to the collection of defunct objects orbiting the Earth. Examples of debris include non-operational satellites, rocket bodies, and fragments generated from explosions, collisions, or faulty payload assembly.

Loading next visibility...
Identifier
2518, 1966-087C
Orbit
SSO
Country
Flag of USUS
Related business
Manufacturer
Unknown
Mission
Spacecraft
Bus & Motor
Unknown
Mass
1 kg wet, 1 kg dry
Launch date (UTC)
1966-10-02 (59 years ago)
Launch vehicle
Unknown
Launch site
Air Force Western Test Range (AFWTR)
Object type
Payload
Rocket body
Debris
Shape & HBR
Cyl + 1 Cable, 1.8 m
Radar Cross Section
3.500 m², Small (<0.1 m²)

Expand to show TLE details & history
Last TLE update: 4 days ago

TLE from 4 days ago
0 DELTA 1 DEB
1 02518U 66087C   25258.26380258 -.00000027  00000-0  78339-4 0  9993
2 02518 100.8487  10.7207 0080986  21.2616   7.1262 12.42694968673276
Epoch: 2025-09-15T06:19Z
TLE epoch observation values (Epoch: 2025-09-15T06:19:52.542Z)
Latitude
27.99045°
Longitude
-84.53632°
Altitude
1,435.102 km
Speed
7.175 km/s
True Right ascension
00h 19m 36s
True Declination
27° 51' 38"
Sunlit
Object was in full shadow at epoch
Visualization orbit readout
Latitude
Unknown
Longitude
Unknown
Altitude
Unknown
Speed
Unknown
Apparent Right ascension
Unknown
Apparent Declination
Unknown
Sunlit
N/A
Visualization observer readout
Local Sidereal Time
21:52:41
Azimuth
Unknown
Elevation
Unknown
Doppler factor
Unknown
Orbital elements
Apogee altitude
1,556.448 km
Perigee altitude
1,428.962 km
Semi-major axis
7,870.842 km
Eccentricity
0.0081
Inclination
100.8487°
RAAN
10.7207°
Arg. of periapsis
21.2616°
True anomaly
7.24249°
Mean anomaly
7.1262°
Eccentric anomaly
7.18423°
Mean motion
3.10822 °/min
Orbital period
115.82 mins
BSTAR
0.000078339
Loading maneuver chart data...
Computing Atmospheric mass density...
Loading historical data...
Loading historical data...
Loading historical data...
Loading historical data...
Loading historical data...
Loading historical data...
Loading historical data...
Other satellites on launch #87 in the year 1966 (1966-10-02 UTC)

Documentation

Showing up to 5 results
|